Location: Newark
(31.5350°N, 35.0986°E)
Time: 00:53:26
(UTC+00:00)

Courier 1B Rocket - All Passes

Search period start: 21 September 2019 00:00
Search period end: 01 October 2019 00:00
Orbit: 920 x 1202 km, 28.2° (Epoch: 20 September)

Date Brightness Start Highest point End Pass type
(mag) Time Alt. Az. Time Alt. Az. Time Alt. Az.
21 Sep - 10:10:13 10° SSW 10:15:36 20° SSE 10:20:51 10° ESE daylight
21 Sep - 12:01:36 10° SW 12:08:49 46° SSE 12:15:37 10° E daylight
21 Sep - 13:54:56 10° WSW 14:02:17 67° S 14:09:06 10° E daylight
21 Sep - 15:48:48 10° W 15:55:44 59° S 16:02:11 10° ESE visible
21 Sep - 17:43:02 10° W 17:48:46 30° SSW 17:54:15 10° SE visible
22 Sep - 09:10:47 10° S 09:14:34 14° SSE 09:18:18 10° ESE daylight
22 Sep - 11:00:43 10° SW 11:07:42 37° SSE 11:14:22 10° E daylight
22 Sep - 12:53:38 10° WSW 13:01:07 63° S 13:08:07 10° E daylight
22 Sep - 14:47:26 10° W 14:54:40 66° S 15:01:22 10° ESE daylight
22 Sep - 16:41:29 10° W 16:47:54 40° SSW 16:53:56 10° SE visible
22 Sep - 18:37:11 10° WSW 18:40:38 15° SSW 18:44:01 10° S visible
23 Sep - 10:00:07 10° SSW 10:06:35 29° SSE 10:12:54 10° E daylight
23 Sep - 11:52:25 10° WSW 11:59:56 56° SSE 12:07:03 10° E daylight
23 Sep - 13:46:03 10° W 13:53:31 69° S 14:00:28 10° E daylight
23 Sep - 15:40:02 10° W 15:46:56 51° SSW 15:53:22 10° ESE daylight
23 Sep - 17:34:48 10° WSW 17:39:51 22° SSW 17:44:42 10° SSE visible
24 Sep - 08:59:56 10° SSW 09:05:31 21° SSE 09:11:02 10° ESE daylight
24 Sep - 10:51:21 10° SW 10:58:45 47° SSE 11:05:52 10° E daylight
24 Sep - 12:44:41 10° WSW 12:52:19 68° S 12:59:28 10° E daylight
24 Sep - 14:38:36 10° W 14:45:52 60° S 14:52:38 10° ESE daylight
24 Sep - 16:32:57 10° W 16:39:00 31° SSW 16:44:43 10° SE visible
25 Sep - 08:00:30 10° S 08:04:28 15° SSE 08:08:26 10° ESE daylight
25 Sep - 09:50:29 10° SW 09:57:35 38° SSE 10:04:32 10° E daylight
25 Sep - 11:43:23 10° WSW 11:51:04 64° S 11:58:24 10° E daylight
25 Sep - 13:37:12 10° W 13:44:44 67° S 13:51:46 10° ESE daylight
25 Sep - 15:31:19 10° W 15:38:04 41° SSW 15:44:23 10° SE daylight
25 Sep - 17:27:06 10° WSW 17:30:51 15° SSW 17:34:30 10° S visible
26 Sep - 08:49:55 10° SSW 08:56:27 29° SSE 09:02:58 10° E daylight
26 Sep - 10:42:11 10° WSW 10:49:50 57° SSE 10:57:15 10° E daylight
26 Sep - 12:35:48 10° W 12:43:30 70° S 12:50:47 10° E daylight
26 Sep - 14:29:48 10° W 14:37:02 51° SSW 14:43:47 10° ESE daylight
26 Sep - 16:24:39 10° WSW 16:30:01 23° SSW 16:35:09 10° SSE visible
27 Sep - 07:49:48 10° SSW 07:55:23 22° SSE 08:01:01 10° ESE daylight
27 Sep - 09:41:10 10° SW 09:48:37 48° SSE 09:55:58 10° E daylight
27 Sep - 11:34:27 10° WSW 11:42:14 69° S 11:49:42 10° E daylight
27 Sep - 13:28:21 10° W 13:35:54 61° SSW 13:42:59 10° ESE daylight
27 Sep - 15:22:45 10° W 15:29:07 32° SSW 15:35:08 10° SE daylight
28 Sep - 06:50:28 10° S 06:54:23 15° SSE 06:58:21 10° ESE daylight
28 Sep - 08:40:22 10° SW 08:47:25 39° SSE 08:54:32 10° E daylight
28 Sep - 10:33:11 10° WSW 10:40:56 65° S 10:48:32 10° E daylight
28 Sep - 12:26:57 10° W 12:34:41 67° S 12:42:02 10° ESE daylight
28 Sep - 14:21:05 10° W 14:28:07 42° SSW 14:34:45 10° SE daylight
28 Sep - 16:16:52 10° WSW 16:20:59 16° SSW 16:24:59 10° S visible
29 Sep - 07:39:54 10° SSW 07:46:19 30° SSE 07:52:53 10° E daylight
29 Sep - 09:32:04 10° WSW 09:39:40 58° SSE 09:47:17 10° E daylight
29 Sep - 11:25:35 10° W 11:33:24 70° S 11:40:58 10° E daylight
29 Sep - 13:19:33 10° W 13:27:01 52° SSW 13:34:05 10° ESE daylight
29 Sep - 15:14:24 10° WSW 15:20:06 24° SSW 15:25:33 10° SSE daylight
30 Sep - 06:39:51 10° SSW 06:45:17 22° SSE 06:50:52 10° ESE daylight
30 Sep - 08:31:07 10° SW 08:38:26 49° SSE 08:45:55 10° E daylight
30 Sep - 10:24:18 10° WSW 10:32:05 70° S 10:39:47 10° E daylight
30 Sep - 12:18:07 10° W 12:25:49 61° SSW 12:33:12 10° ESE daylight
30 Sep - 14:12:30 10° W 14:19:08 33° SSW 14:25:28 10° SE daylight
30 Sep - 16:11:27 10° SW 16:11:55 10° SW 16:12:24 10° SSW visible
